www.pogodaiklimat.ru

Погода и климат >> Архив погоды >> Канада >> Dubawnt Lake


ПОГОДА в Dubawnt Lake

  • Прогноз погоды в Dubawnt Lake
  • Монитор погоды в Dubawnt Lake
  • Климат города

АРХИВ ПОГОДЫ в Dubawnt Lake

Время (UTC), дата Ветер
(напр.,м/с)
 
Видим.   Явления Облачность Т
(С)
Тd
(С)
f
(%)
Тe
(С)
Тes
(С)
Комфортность P
(гПа)
Po
(гПа)
Тmin
(С)
Tmax
(С)
R
(мм)
R24
(мм)
S
(см)
06 6.12 ЮЗ 3 16 км слаб. снег 10/10 1000 м
[]
-14.8 -16.4 88 -21 -21 1023.4 957.3 -33.5 -14.8
09 6.12 З 4 16 км 10/10 1500 м
[]
-15.0 -16.4 89 -22 -22 1022.6 956.8
12 6.12 З 2 16 км слаб. снег 10/10 300 м
[]
-13.2 -14.7 88 -18 -18 1021.4 956.0 -18.3 -14.8
15 6.12 ЮЗ 3 16 км слаб. снег 10/10 300 м
[]
-12.2 -13.7 89 -18 -18 1019.8 954.8
18 6.12 З 4 16 км слаб. снег 10/10 200 м
[]
-10.9 -12.2 90 -18 -18 1018.5 953.7 -25.2 -10.9
21 6.12 З 2 16 км слаб. снег 10/10 300 м
[]
-10.2 -11.7 89 -14 -14 1017.7 953.0
00 7.12 З 2 16 км 10/10 300 м
[]
-10.3 -11.5 91 -15 -15 1017.8 953.2 -16.1 -10.2
03 7.12 З 4 16 км слаб. снег 10/10 100 м
[]
-10.5 -11.3 94 -17 -17 1016.9 952.4
06 7.12 З 4 16 км слаб. снег 10/10 100 м
[]
-10.4 -11.1 95 -18 -18 1017.3 952.9 -16.1 -9.9
09 7.12 ЮЗ 5 16 км 9/9 100 м
[]
-11.0 -11.9 93 -19 -19 1017.1 952.7
12 7.12 ЮЗ 2 16 км ясно -15.6 -16.8 90 -21 -21 1017.5 952.8 -16.8 -9.9
15 7.12 ЮЗ 3 16 км слаб. снег ясно -14.5 -15.7 91 -21 -21 1016.7 952.1
18 7.12 Ю 5 16 км ясно -11.4 -12.6 91 -19 -19 1015.5 951.2 -16.8 -10.2
21 7.12 ЮЗ 2 16 км 9/0
[]
-9.2 -11.0 87 -14 -14 1014.0 949.9
00 8.12 ЮЗ 1 16 км ясно -12.8 -13.8 92 -15 -15 1014.7 950.0 -16.8 -8.6
03 8.12 ЮЗ 3 16 км ясно -18.2 -19.8 87 -25 -25 1015.1 950.1
06 8.12 ЮЗ 1 16 км ясно -18.2 -19.6 89 -21 -21 1015.3 950.5 -19.1 -8.6
09 8.12 З 1 16 км ясно -17.9 -19.4 88 -21 -21 1016.9 952.1
12 8.12 СЗ 1 16 км ясно -18.2 -20.1 85 -21 -21 1017.1 952.1 -20.7 -8.6
15 8.12 Ю 2 16 км ясно -20.1 -22.2 83 -25 -25 1018.1 952.5
18 8.12 Ю 2 16 км ясно -13.3 -14.6 90 -18 -18 1017.5 952.4 -20.7 -13.3
21 8.12 ЮЗ 3 16 км ясно -9.3 -10.4 92 -15 -15 1016.1 951.4
00 9.12 Ю 3 16 км ясно -11.3 -12.6 90 -17 -17 1015.7 950.9 -20.7 -8.8
03 9.12 ЮЗ 3 16 км ясно -12.0 -13.4 89 -18 -18 1016.3 951.2
06 9.12 З 3 16 км ясно -10.8 -12.1 90 -17 -17 1016.7 952.2 -20.7 -8.8
09 9.12 З 3 16 км ясно -8.9 -10.3 90 -15 -15 1016.5 952.4
12 9.12 ЮЗ 1 16 км ясно -12.5 -13.8 90 -15 -15 1016.4 951.9 -14.1 -8.8
15 9.12 ЮЗ 3 16 км ясно -9.5 -10.6 92 -15 -15 1016.1 951.8
18 9.12 З 3 16 км ясно -6.5 -8.4 86 -12 -12 1016.2 952.1 -14.1 -6.5
21 9.12 З 3 16 км ясно -4.4 -7.2 81 -9 -9 1015.7 951.9
00 10.12 З 2 16 км ясно -11.0 -12.1 92 -16 -16 1017.0 952.5 -13.4 -3.9
03 10.12 ЮЗ 2 16 км ясно -13.5 -14.1 95 -18 -18 1016.5 952.0
06 10.12 Ю 2 16 км ясно -15.7 -17.0 90 -21 -21 1016.2 951.8 -19.1 -3.9
09 10.12 ЮЗ 1 16 км ясно -15.5 -16.4 93 -18 -18 1015.2 951.0
12 10.12 ЮВ 2 16 км ясно -19.4 -21.1 86 -24 -24 1014.6 949.8 -20.3 -3.9
15 10.12 Ю 4 16 км ясно -8.5 -9.2 95 -16 -16 1012.5 948.4
18 10.12 Ю 4 16 км ясно -6.4 -7.4 93 -13 -13 1012.2 948.1 -20.3 -6.3
21 10.12 Ю 3 16 км ясно -5.3 -8.9 76 -11 -11 1010.5 946.6
00 11.12 Ю 5 16 км 5/0
[]
-5.5 -8.8 78 -12 -12 1009.3 945.2 -20.3 -4.0
03 11.12 Ю 2 16 км 3/0
[]
-7.9 -10.3 83 -12 -12 1007.5 944.0
06 11.12 Ю 2 16 км 10/0
[]
-7.0 -9.1 85 -11 -11 1006.5 943.3 -20.3 -4.0
09 11.12 ЮЗ 3 16 км 10/0
[]
-7.0 -8.7 88 -12 -12 1005.5 942.4
12 11.12 З 3 16 км ясно -8.2 -8.9 95 -14 -14 1005.1 942.0 -9.2 -4.0
15 11.12 З 1 16 км ясно -11.7 -12.4 95 -14 -14 1004.4 940.9
18 11.12 ЮЗ 2 16 км ясно -8.2 -8.7 96 -12 -12 1002.8 939.7 -14.0 -6.4
21 11.12 Ю 2 16 км ясно -6.7 -8.6 86 -10 -10 1001.5 938.6
00 12.12 Ю 2 16 км ясно -10.7 -11.2 96 -15 -15 1000.5 937.3 -14.0 -6.6
03 12.12 ЮВ 2 16 км ясно -11.7 -12.4 95 -16 -16 997.6 934.3
06 12.12 Ю 2 16 км ясно -9.5 -10.6 92 -14 -14 995.2 932.4 -15.6 -6.4
09 12.12 ЮВ 3 16 км 10/0
[]
-7.1 -8.3 91 -13 -13 991.9 929.6
12 12.12 Ю 4 16 км ясно -7.4 -8.5 92 -14 -14 990.6 928.1 -15.6 -6.4
15 12.12 Ю 3 12 км слаб. снег 10/10 600 м
[]
-5.8 -6.8 93 -11 -11 990.2 927.8
18 12.12 ЮЗ 3 16 км ясно -5.3 -6.4 92 -11 -11 990.5 928.2 -15.6 -5.0
21 12.12 ЮЗ 4 16 км ясно -2.8 -5.4 82 -8 -8 990.6 928.6
00 13.12 ЮЗ 5 16 км 10/10 600 м
[]
-2.9 -5.2 84 -10 -10 993.7 931.5 -9.5 -2.2

 

Местоположение метеостанции Dubawnt Lake (Канада): широта 63.23 долгота -101.70 высота над уровнем моря 237 м.

В архиве по умолчанию представлена погода в Dubawnt Lake за последнюю неделю. Архивные данные за месяц целиком и за предыдущие месяцы, начиная с января 2011 года, Вы можете получить, выбрав интересующий диапазон дат из раскрывающегося списка и нажав кнопку "Ввод!".


*Определитесь, кто Вы:
робот инопланетянин человек

Внимание! Время в таблицах - всемирное. Для получения местного времени необходимо прибавить поправку, которая в Dubawnt Lake равна -6 ч.

Смотрите также архив погоды в соседних городах и на ближайших метеорологических станциях:

Погода в Hanbury River ARS (Канада) (176 км)
Погода в Robertson Lake (Канада) (211 км)
Погода в Baker Lake Airport (Канада) (302 км)
Погода в Baker Lake Climate (Канада) (305 км)
Погода в Fort Reliance (aut) (Канада) (379 км)
Погода в Porter Lake (Канада) (387 км)
Погода в Back River MAPS (Канада) (402 км)
Погода в Lustel Ke A (Канада) (461 км)
Погода в Arviat Climate (Канада) (462 км)
Погода в Arviat (Канада) (462 км)

Пояснения к столбцам:

Ветер - указаны скорость ветра в м/с - средняя за 10 мин, порывы в срок и между сроками (в фигурных скобках) и направление, откуда дует ветер: С - северный, СВ - северо-восточный, В - восточный, ЮВ - юго-восточный, Ю - южный, ЮЗ - юго-западный, З - западный, СЗ - северо-западный.
Видимость - горизонтальная дальность видимости в метрах или километрах. При видимости от 1 до 10 км при отсутствии осадков обычно наблюдается дымка, при ухудшении видимости до 1 км и менее - туман. В сухую погоду видимость может ухудшаться дымом, пылью или мглою.
Явления - указаны атмосферные явления, наблюдавшиеся в срок или в последний час перед сроком; фигурными скобками обозначены явления, наблюдавшиеся между сроками (за 1-3 часа до срока); квадратными скобками обозначены град или гололедные отложения с указанием их диаметра в мм.
Облачность - указаны через наклонную черту общая и нижняя облачность в баллах и высота нижней границы облаков в метрах; квадратными скобками обозначены формы облаков: Ci - перистые, Cs - перисто-слоистые, Cc - перисто-кучевые, Ac - высококучевые, As - высокослоистые, Sc - слоисто-кучевые, Ns - слоисто-дождевые, Cu - кучевые, Cb - кучево-дождевые. Подробнее классификацию облаков см. в Атласе облаков (PDF).
T - Температура воздуха - температура, измеренная на высоте 2 м над землей.
Td - Температура точки росы - температура, при понижении до которой содержащийся в воздухе водяной пар достигнет насыщения.
f - Относительная влажность воздуха - влажноcть воздуха, измеренная на высоте 2 м над землей.
Te - Эффективная температура - температура, которую ощущает одетый по сезону человек в тени. Характеристика душности погоды. При расчете учитывается влияние влажности воздуха и скорости ветра на теплоощущения человека.
Tes - Эффективная температура на солнце - температура, которую ощущает человек, с поправкой на солнечный нагрев. Характеристика знойности погоды. Зависит от высоты солнца над горизонтом, облачности и скорости ветра. Ночью, в пасмурную погоду, а также при ветре 12 м/с и более поправка равна нулю.
P - Атмосферное давление - приведенное к уровню моря атмосферное давление.
Po - Атмосферное давление - измеренное на уровне метеостанции атмосферное давление.
Tmin - Минимальная температура - минимум температуры воздуха на высоте 2 м над землей.
Tmax - Максимальная температура - максимум температуры воздуха на высоте 2 м над землей.
R - Количество осадков - Количество выпавших осадков за период времени, мм. При наведении курсора мыши на число - период времени, за который выпало указанное количество осадков.
R24 - Количество осадков - Количество выпавших осадков за 24 часа, мм.
S - Снежный покров - Высота снежного покрова, см. При наведении курсора мыши на число - состояние снежного покрова и степень покрытия местности в баллах.